Location: Contre
(49.7477°N, 2.0963°E)
Time: 08:54:38
(UTC+00:00)

Cosmos 468 Rocket - Pass Details

Date: 03 February 2023
Orbit: 744 x 778 km, 74.0° (Epoch: 23 March)

Event Time Altitude Azimuth Distance (km) Brightness Sun altitude
Rises 17:58:59 0° 336° (NNW) 3,225 7.4 -11.5°
Reaches altitude 10° 18:01:23 10° 338° (NNW) 2,291 6.6 -11.8°
Maximum altitude 18:06:35 78° 65° (ENE) 772 3.9 -12.7°
Drops below altitude 10° 18:11:42 10° 153° (SSE) 2,258 6.3 -13.5°
Sets 18:14:03 0° 154° (SSE) 3,175 7.0 -13.8°
